HVN1832 VVPQ-VVTS

Flight info

Callsign HVN1832
Flight time 0h 40m
Altitude 29000
Route TUNPO2B TUNPO W8 RG W16 TRN TRN5B
Aircraft A321/M-SDE3FGHIRWY/LB1

Departure

Time 2026-05-05 12:45
Airport Phú Quốc International Airport (VVPQ)

Arrival

Time 2026-05-05 13:25
Airport Tan Son Nhat International Airport (VVTS)
Time Latitude Longitude Altitude Speed Heading
2026-05-05 12:26 10.16431 103.99781 0 ft 0 kts 186°
2026-05-05 12:34 10.16433 103.99781 0 ft 1 kts 186°
2026-05-05 12:34 10.16451 103.99782 27 ft 3 kts 184°
2026-05-05 12:35 10.16471 103.99784 27 ft 3 kts 180°
2026-05-05 12:35 10.16491 103.99783 27 ft 3 kts 171°
2026-05-05 12:35 10.16510 103.99778 27 ft 3 kts 143°
2026-05-05 12:35 10.16519 103.99768 27 ft 1 kts 98°
2026-05-05 12:36 10.16519 103.99767 27 ft 0 kts 96°
2026-05-05 12:38 10.16519 103.99769 27 ft 2 kts 96°
2026-05-05 12:39 10.16517 103.99803 27 ft 6 kts 88°
2026-05-05 12:39 10.16578 103.99842 27 ft 17 kts 11°
2026-05-05 12:39 10.16695 103.99857 27 ft 14 kts
2026-05-05 12:39 10.16760 103.99813 27 ft 13 kts 277°
2026-05-05 12:40 10.16771 103.99705 27 ft 18 kts 276°
2026-05-05 12:40 10.16786 103.99565 26 ft 21 kts 276°
2026-05-05 12:40 10.16801 103.99414 30 ft 22 kts 276°
2026-05-05 12:40 10.16816 103.99256 27 ft 22 kts 275°
2026-05-05 12:41 10.16832 103.99096 24 ft 21 kts 276°
2026-05-05 12:41 10.16846 103.98958 25 ft 19 kts 276°
2026-05-05 12:41 10.16858 103.98834 23 ft 19 kts 276°
2026-05-05 12:41 10.16870 103.98707 23 ft 19 kts 276°
2026-05-05 12:42 10.16883 103.98573 22 ft 19 kts 275°
2026-05-05 12:42 10.16895 103.98461 22 ft 17 kts 276°
2026-05-05 12:42 10.16908 103.98336 21 ft 20 kts 276°
2026-05-05 12:42 10.16922 103.98195 21 ft 16 kts 276°
2026-05-05 12:43 10.16934 103.98079 20 ft 18 kts 276°
2026-05-05 12:43 10.16946 103.97960 20 ft 14 kts 275°
2026-05-05 12:43 10.16967 103.97873 20 ft 13 kts 314°
2026-05-05 12:43 10.17051 103.97873 20 ft 13 kts 24°
2026-05-05 12:44 10.17117 103.97939 20 ft 14 kts 75°
2026-05-05 12:44 10.17113 103.98025 20 ft 2 kts 95°
2026-05-05 12:44 10.17110 103.98055 20 ft 12 kts 95°
2026-05-05 12:44 10.17074 103.98420 26 ft 90 kts 96°
2026-05-05 12:45 10.16989 103.99276 29 ft 151 kts 95°
2026-05-05 12:45 10.16874 104.00469 325 ft 174 kts 95°
2026-05-05 12:45 10.16755 104.01661 1057 ft 171 kts 95°
2026-05-05 12:45 10.16632 104.02893 1583 ft 182 kts 96°
2026-05-05 12:46 10.16497 104.04247 1773 ft 204 kts 96°
2026-05-05 12:46 10.16344 104.05769 1945 ft 230 kts 96°
2026-05-05 12:46 10.16175 104.07464 2353 ft 250 kts 96°
2026-05-05 12:46 10.15997 104.09235 3059 ft 254 kts 96°
2026-05-05 12:47 10.15818 104.11026 3832 ft 256 kts 95°
2026-05-05 12:47 10.15638 104.12837 4602 ft 259 kts 95°
2026-05-05 12:47 10.15456 104.14668 5344 ft 263 kts 95°
2026-05-05 12:47 10.15272 104.16520 6086 ft 265 kts 95°
2026-05-05 12:48 10.15089 104.18395 6778 ft 269 kts 95°
2026-05-05 12:48 10.14906 104.20295 7449 ft 272 kts 95°
2026-05-05 12:48 10.14722 104.22219 8134 ft 275 kts 95°
2026-05-05 12:48 10.14537 104.24163 8806 ft 279 kts 95°
2026-05-05 12:49 10.14349 104.26130 9466 ft 282 kts 95°
2026-05-05 12:49 10.14155 104.28127 10055 ft 288 kts 95°
2026-05-05 12:49 10.13952 104.30203 10188 ft 310 kts 95°
2026-05-05 12:49 10.13731 104.32459 10308 ft 332 kts 95°
2026-05-05 12:50 10.13485 104.34859 10433 ft 351 kts 98°
2026-05-05 12:50 10.12906 104.37297 10789 ft 360 kts 107°
2026-05-05 12:50 10.12144 104.39734 11304 ft 364 kts 107°
2026-05-05 12:50 10.11382 104.42202 11845 ft 367 kts 107°
2026-05-05 12:51 10.10619 104.44688 12389 ft 371 kts 107°
2026-05-05 12:51 10.09848 104.47201 12915 ft 375 kts 107°
2026-05-05 12:51 10.09069 104.49735 13456 ft 378 kts 107°
2026-05-05 12:51 10.08278 104.52300 13937 ft 382 kts 107°
2026-05-05 12:52 10.07481 104.54879 14412 ft 385 kts 107°
2026-05-05 12:52 10.06676 104.57486 14881 ft 388 kts 107°
2026-05-05 12:52 10.05992 104.60142 15343 ft 391 kts 101°
2026-05-05 12:52 10.05479 104.62864 15813 ft 394 kts 101°
2026-05-05 12:53 10.04963 104.65606 16285 ft 398 kts 101°
2026-05-05 12:53 10.04444 104.68376 16754 ft 401 kts 101°
2026-05-05 12:53 10.03921 104.71168 17218 ft 404 kts 101°
2026-05-05 12:53 10.03400 104.73945 17697 ft 407 kts 101°
2026-05-05 12:54 10.02327 104.79637 18568 ft 414 kts 101°
2026-05-05 12:54 10.01782 104.82513 18980 ft 416 kts 101°
2026-05-05 12:54 10.01233 104.85410 19368 ft 419 kts 101°
2026-05-05 12:55 10.00679 104.88326 19745 ft 422 kts 101°
2026-05-05 12:55 10.00120 104.91260 20137 ft 424 kts 101°
2026-05-05 12:55 9.99557 104.94207 20495 ft 427 kts 101°
2026-05-05 12:55 9.98992 104.97180 20847 ft 430 kts 101°
2026-05-05 12:56 9.98429 105.00167 21216 ft 432 kts 101°
2026-05-05 12:56 9.97864 105.03166 21559 ft 435 kts 101°
2026-05-05 12:56 9.97299 105.06151 21884 ft 437 kts 101°
2026-05-05 12:56 9.96724 105.09188 22223 ft 440 kts 101°
2026-05-05 12:57 9.96338 105.12278 22533 ft 443 kts 92°
2026-05-05 12:57 9.96468 105.15406 22840 ft 446 kts 83°
2026-05-05 12:57 9.97074 105.18507 23150 ft 449 kts 77°
2026-05-05 12:57 9.97760 105.21600 23449 ft 451 kts 77°
2026-05-05 12:58 9.98443 105.24717 23703 ft 453 kts 78°
2026-05-05 12:58 9.99120 105.27846 23977 ft 455 kts 78°
2026-05-05 12:58 9.99795 105.30987 24251 ft 457 kts 78°
2026-05-05 12:58 10.00244 105.33076 24431 ft 458 kts 78°
2026-05-05 12:59 10.00924 105.36236 24705 ft 459 kts 78°
2026-05-05 12:59 10.01606 105.39408 24982 ft 461 kts 78°
2026-05-05 12:59 10.02290 105.42588 25256 ft 462 kts 78°
2026-05-05 13:00 10.03674 105.48980 25792 ft 465 kts 78°
2026-05-05 13:00 10.04372 105.52194 26056 ft 467 kts 78°
2026-05-05 13:01 10.06479 105.61899 26832 ft 472 kts 78°
2026-05-05 13:01 10.07180 105.65153 27082 ft 473 kts 78°
2026-05-05 13:01 10.07882 105.68422 27365 ft 474 kts 78°
2026-05-05 13:01 10.08710 105.71670 27620 ft 476 kts 72°
2026-05-05 13:02 10.09770 105.74816 27883 ft 478 kts 71°
2026-05-05 13:02 10.10856 105.78014 28130 ft 479 kts 71°
2026-05-05 13:02 10.11942 105.81206 28484 ft 478 kts 71°
2026-05-05 13:02 10.13026 105.84389 28789 ft 478 kts 71°
2026-05-05 13:03 10.15157 105.90688 28866 ft 466 kts 71°
2026-05-05 13:03 10.17229 105.96853 28645 ft 453 kts 71°
2026-05-05 13:04 10.18232 105.99839 28393 ft 441 kts 71°
2026-05-05 13:04 10.19213 106.02753 28144 ft 431 kts 71°
2026-05-05 13:04 10.20175 106.05598 27894 ft 420 kts 71°
2026-05-05 13:04 10.21110 106.08367 27737 ft 409 kts 71°
2026-05-05 13:05 10.22018 106.11060 27559 ft 399 kts 71°
2026-05-05 13:05 10.22909 106.13710 27265 ft 394 kts 71°
2026-05-05 13:05 10.23789 106.16328 26883 ft 391 kts 71°
2026-05-05 13:05 10.24664 106.18936 26496 ft 389 kts 71°
2026-05-05 13:06 10.25532 106.21520 26038 ft 384 kts 71°
2026-05-05 13:06 10.26601 106.24002 25438 ft 382 kts 61°
2026-05-05 13:06 10.28054 106.26242 24850 ft 379 kts 51°
2026-05-05 13:06 10.29820 106.28211 24252 ft 376 kts 46°
2026-05-05 13:07 10.31633 106.30119 23664 ft 374 kts 47°
2026-05-05 13:07 10.33410 106.32005 23135 ft 372 kts 47°
2026-05-05 13:07 10.35193 106.33904 22605 ft 370 kts 47°
2026-05-05 13:07 10.36965 106.35796 22080 ft 369 kts 47°
2026-05-05 13:08 10.38740 106.37689 21540 ft 370 kts 47°
2026-05-05 13:08 10.40514 106.39581 21031 ft 369 kts 47°
2026-05-05 13:08 10.42286 106.41471 20532 ft 369 kts 47°
2026-05-05 13:08 10.44055 106.43356 20037 ft 369 kts 47°
2026-05-05 13:09 10.45824 106.45239 19555 ft 368 kts 47°
2026-05-05 13:09 10.47592 106.47120 19078 ft 367 kts 47°
2026-05-05 13:09 10.49357 106.48998 18611 ft 366 kts 48°
2026-05-05 13:09 10.51111 106.50867 18145 ft 365 kts 47°
2026-05-05 13:10 10.52866 106.52734 17616 ft 364 kts 47°
2026-05-05 13:10 10.54616 106.54593 17088 ft 363 kts 47°
2026-05-05 13:10 10.56170 106.56593 16570 ft 360 kts 63°
2026-05-05 13:10 10.56964 106.58968 16056 ft 351 kts 83°
2026-05-05 13:11 10.56912 106.61399 15559 ft 340 kts 102°
2026-05-05 13:11 10.56163 106.63640 15065 ft 332 kts 112°
2026-05-05 13:11 10.55299 106.65795 14525 ft 326 kts 112°
2026-05-05 13:11 10.54455 106.67905 14055 ft 319 kts 111°
2026-05-05 13:12 10.53628 106.69977 13562 ft 313 kts 111°
2026-05-05 13:12 10.52823 106.71987 13045 ft 308 kts 111°
2026-05-05 13:12 10.52022 106.73990 12517 ft 303 kts 111°
2026-05-05 13:12 10.51235 106.75962 12010 ft 299 kts 111°
2026-05-05 13:13 10.50457 106.77913 11498 ft 296 kts 111°
2026-05-05 13:13 10.49686 106.79844 10971 ft 294 kts 111°
2026-05-05 13:13 10.48924 106.81759 10573 ft 286 kts 111°
2026-05-05 13:13 10.48251 106.83607 10316 ft 273 kts 102°
2026-05-05 13:14 10.48035 106.85489 9932 ft 266 kts 87°
2026-05-05 13:14 10.48318 106.87324 9453 ft 262 kts 75°
2026-05-05 13:14 10.48778 106.89121 8905 ft 263 kts 75°
2026-05-05 13:14 10.49296 106.90895 8563 ft 262 kts 65°
2026-05-05 13:15 10.50398 106.92437 8436 ft 277 kts 41°
2026-05-05 13:15 10.52102 106.93358 8322 ft 282 kts 14°
2026-05-05 13:15 10.54070 106.93435 8199 ft 286 kts 357°
2026-05-05 13:15 10.56031 106.93260 8073 ft 287 kts 356°
2026-05-05 13:16 10.58013 106.93076 7965 ft 286 kts 356°
2026-05-05 13:16 10.59993 106.92890 7830 ft 286 kts 356°
2026-05-05 13:16 10.61969 106.92709 7722 ft 285 kts 357°
2026-05-05 13:16 10.63944 106.92530 7604 ft 284 kts 357°
2026-05-05 13:17 10.65912 106.92354 7479 ft 284 kts 357°
2026-05-05 13:17 10.67878 106.92179 7371 ft 283 kts 357°
2026-05-05 13:17 10.69839 106.92003 7242 ft 283 kts 357°
2026-05-05 13:17 10.71802 106.91827 7066 ft 283 kts 357°
2026-05-05 13:18 10.73765 106.91650 6690 ft 283 kts 357°
2026-05-05 13:18 10.75734 106.91475 6313 ft 284 kts 357°
2026-05-05 13:18 10.77694 106.91303 5907 ft 284 kts 357°
2026-05-05 13:18 10.79661 106.91132 5445 ft 284 kts 357°
2026-05-05 13:19 10.81599 106.90960 5042 ft 271 kts 357°
2026-05-05 13:19 10.83383 106.90799 4984 ft 246 kts 357°
2026-05-05 13:19 10.85030 106.90524 4908 ft 235 kts 341°
2026-05-05 13:19 10.86377 106.89691 4807 ft 224 kts 317°
2026-05-05 13:20 10.87260 106.88416 4601 ft 217 kts 293°
2026-05-05 13:20 10.87596 106.86991 4484 ft 199 kts 279°
2026-05-05 13:20 10.87806 106.85664 4338 ft 187 kts 279°
2026-05-05 13:20 10.88015 106.84357 3998 ft 187 kts 279°
2026-05-05 13:21 10.88221 106.83046 3659 ft 188 kts 277°
2026-05-05 13:21 10.88178 106.81725 3294 ft 189 kts 256°
2026-05-05 13:21 10.87784 106.80426 2877 ft 193 kts 248°
2026-05-05 13:21 10.87321 106.79152 2582 ft 189 kts 246°
2026-05-05 13:22 10.86860 106.77918 2331 ft 184 kts 246°
2026-05-05 13:22 10.86414 106.76733 2095 ft 175 kts 246°
2026-05-05 13:22 10.85983 106.75591 1874 ft 172 kts 246°
2026-05-05 13:22 10.85567 106.74485 1691 ft 162 kts 246°
2026-05-05 13:23 10.85171 106.73436 1461 ft 157 kts 246°
2026-05-05 13:23 10.84780 106.72400 1259 ft 157 kts 246°
2026-05-05 13:23 10.84390 106.71366 1052 ft 156 kts 247°
2026-05-05 13:23 10.84005 106.70353 883 ft 154 kts 247°
2026-05-05 13:24 10.83621 106.69348 688 ft 151 kts 248°
2026-05-05 13:24 10.83248 106.68353 501 ft 149 kts 249°
2026-05-05 13:24 10.82881 106.67387 313 ft 144 kts 250°
2026-05-05 13:24 10.82527 106.66441 109 ft 142 kts 251°
2026-05-05 13:25 10.82192 106.65541 43 ft 121 kts 249°
2026-05-05 13:25 10.81951 106.64908 36 ft 68 kts 249°
2026-05-05 13:25 10.81815 106.64659 37 ft 29 kts 224°
2026-05-05 13:25 10.81683 106.64543 39 ft 23 kts 219°
2026-05-05 13:26 10.81590 106.64415 37 ft 23 kts 245°
2026-05-05 13:26 10.81542 106.64315 36 ft 13 kts 221°
2026-05-05 13:26 10.81457 106.64325 37 ft 13 kts 158°
2026-05-05 13:26 10.81341 106.64370 37 ft 19 kts 160°
2026-05-05 13:27 10.81253 106.64412 36 ft 10 kts 128°
2026-05-05 13:27 10.81258 106.64479 37 ft 10 kts 67°
2026-05-05 13:27 10.81292 106.64567 38 ft 16 kts 69°
2026-05-05 13:27 10.81332 106.64674 38 ft 17 kts 69°
2026-05-05 13:28 10.81376 106.64788 39 ft 17 kts 69°
2026-05-05 13:28 10.81420 106.64905 40 ft 18 kts 69°
2026-05-05 13:28 10.81440 106.64997 41 ft 11 kts 115°
2026-05-05 13:28 10.81361 106.65038 38 ft 15 kts 159°
2026-05-05 13:29 10.81271 106.65073 38 ft 9 kts 154°
2026-05-05 13:29 10.81258 106.65134 36 ft 10 kts 68°
2026-05-05 13:29 10.81288 106.65208 37 ft 12 kts 68°
2026-05-05 13:29 10.81303 106.65282 37 ft 7 kts 126°
2026-05-05 13:30 10.81271 106.65305 37 ft 3 kts 156°
2026-05-05 13:30 10.81263 106.65308 37 ft 1 kts 158°
2026-05-05 13:30 10.81258 106.65310 37 ft 0 kts 159°